Regional Weather Roundup
Issued by NWS

Home | Current Version | Previous Version | Text Only | Print | Product List | Glossary Off
Versions: 1 2 3 4 5 6 7 8 9 10 11 12 13 14 15 16 17 18 19 20 21 22 23 24 25 26 27 28 29 30 31 32 33 34 35 36 37 38 39 40 41 42 43 44 45 46 47 48 49 50

000
ASUS43 KTOP 260159
RWRKS

WEATHER ROUNDUP FOR KANSAS
NATIONAL WEATHER SERVICE GOODLAND KS
900 PM CDT MON JUL 25 2016

NOTE:  "FAIR" INDICATES FEW OR NO CLOUDS BELOW 12,000 FEET WITH NO
SIGNIFICANT WEATHER AND/OR OBSTRUCTIONS TO VISIBILITY.

KSZ001>006-013>018-027>032-041>047-260300-
NORTHWEST KANSAS

CITY           SKY/WX    TMP DP  RH WIND       PRES   REMARKS
GOODLAND       CLEAR     75  64  68 S7        30.11F
HAYS           CLEAR     79  63  57 SE7       30.06R
HILL CITY      CLEAR     79  66  64 SE7       30.07R
RUSSELL        CLEAR     78  64  61 E8        30.05R
$$

KSZ061>065-074>080-084>089-260300-
SOUTHWEST KANSAS

CITY           SKY/WX    TMP DP  RH WIND       PRES   REMARKS
DODGE CITY     CLEAR     77  66  68 E7        30.07R
ELKHART          N/A     77  66  68 E5          N/A
GARDEN CITY    CLEAR     78  67  68 E3        30.08R
GREAT BEND     CLEAR     79  64  61 E7        30.05R
LIBERAL        CLEAR     81  64  57 E6        30.08S
$$

KSZ066>073-081>083-090>101-260300-
SOUTHEAST KANSAS

CITY           SKY/WX    TMP DP  RH WIND       PRES   REMARKS
CHANUTE        CLOUDY    78  73  84 NE6       30.03R
COFFEYVILLE    MOCLDY    79  72  79 NE7       30.01R
HUTCHINSON     CLEAR     77  69  76 E6        30.04R
NEWTON         CLOUDY    76  72  87 E6        30.06R
PARSONS          N/A    N/A N/A N/A MISG      30.03R
WICHITA INTL   CLOUDY    81  69  67 E9        30.03R
WICHITA JABRA  CLOUDY    78  72  81 E7        30.04R
WINFIELD       PTCLDY    80  71  74 NE12      30.03R
$$

KSZ007>012-019>026-033>040-048>060-102>105-260300-
NORTHEAST KANSAS

CITY           SKY/WX    TMP DP  RH WIND       PRES   REMARKS
CONCORDIA      CLEAR     73  66  78 SE3       30.06R
EMPORIA        CLOUDY    76  71  85 E6        30.05R
LAWRENCE       PTCLDY    77  69  76 NE5       30.03S
MANHATTAN      CLEAR     77  68  73 NE5       30.04R
OLATHE IND     PTCLDY    79  68  69 E5        30.05R
OLATHE EXE     PTCLDY    78  66  66 E5        30.05R
SALINA         CLEAR     81  68  64 E8        30.04R
TOPEKA BILLARD   N/A     79  68  69 CALM      30.04R
TOPEKA FORBES  PTCLDY    79  69  71 NE3       30.04S
$$




USA.gov is the U.S. government's official web portal to all federal, state and local government web resources and services.